TimeEST,TemperatureF,Dew PointF,Humidity,Sea Level PressureIn,VisibilityMPH,Wind Direction,Wind SpeedMPH,Gust SpeedMPH,PrecipitationIn,Events,Conditions,WindDirDegrees,DateUTC
12:54 AM,34.0,26.1,73,30.11,10.0,Calm,Calm,-,N/A,,Clear,0,2012-11-08 05:54:00
2:54 AM,28.9,24.1,82,30.12,10.0,Calm,Calm,-,N/A,,Clear,0,2012-11-08 07:54:00
3:54 AM,28.0,24.1,85,30.14,9.0,Calm,Calm,-,N/A,,Clear,0,2012-11-08 08:54:00
4:54 AM,27.0,23.0,85,30.14,8.0,Calm,Calm,-,N/A,,Clear,0,2012-11-08 09:54:00
5:54 AM,26.1,23.0,88,30.17,5.0,Calm,Calm,-,N/A,,Clear,0,2012-11-08 10:54:00
6:54 AM,25.0,21.9,88,30.18,6.0,Calm,Calm,-,N/A,,Clear,0,2012-11-08 11:54:00
7:54 AM,27.0,24.1,89,30.21,4.0,Calm,Calm,-,N/A,,Clear,0,2012-11-08 12:54:00
8:54 AM,33.1,28.9,85,30.22,6.0,Calm,Calm,-,N/A,,Clear,0,2012-11-08 13:54:00
9:54 AM,39.9,33.1,77,30.23,6.0,Calm,Calm,-,N/A,,Haze,0,2012-11-08 14:54:00
10:54 AM,45.0,33.1,63,30.23,9.0,Calm,Calm,-,N/A,,Clear,0,2012-11-08 15:54:00
11:54 AM,48.0,32.0,54,30.21,10.0,Variable,4.6,-,N/A,,Partly Cloudy,0,2012-11-08 16:54:00
12:54 PM,48.9,30.9,50,30.18,10.0,WNW,5.8,-,N/A,,Clear,300,2012-11-08 17:54:00
1:54 PM,50.0,33.1,52,30.18,10.0,West,8.1,-,N/A,,Clear,260,2012-11-08 18:54:00
2:54 PM,50.0,30.9,48,30.17,10.0,WNW,8.1,-,N/A,,Clear,300,2012-11-08 19:54:00
3:54 PM,48.9,32.0,52,30.17,10.0,WNW,6.9,-,N/A,,Clear,300,2012-11-08 20:54:00
4:54 PM,46.0,32.0,58,30.17,10.0,NW,3.5,-,N/A,,Clear,310,2012-11-08 21:54:00
5:54 PM,43.0,30.9,62,30.19,10.0,Calm,Calm,-,N/A,,Clear,0,2012-11-08 22:54:00
6:54 PM,36.0,30.0,79,30.20,8.0,Calm,Calm,-,N/A,,Clear,0,2012-11-08 23:54:00
7:54 PM,34.0,28.9,82,30.19,8.0,Calm,Calm,-,N/A,,Clear,0,2012-11-09 00:54:00
8:54 PM,30.9,28.0,89,30.19,7.0,Calm,Calm,-,N/A,,Clear,0,2012-11-09 01:54:00
9:54 PM,30.9,27.0,85,30.19,6.0,Calm,Calm,-,N/A,,Clear,0,2012-11-09 02:54:00
10:54 PM,30.0,26.1,85,30.19,6.0,Calm,Calm,-,N/A,,Clear,0,2012-11-09 03:54:00
11:54 PM,30.0,26.1,85,30.19,5.0,Calm,Calm,-,N/A,,Clear,0,2012-11-09 04:54:00